Location: Gad�tanya
(48.0500°N, 20.8500°E)
Time: 11:14:26
(UTC+00:00)

Cosmos 2218 Rocket - Pass Details

Date: 05 July 2020
Orbit: 955 x 1007 km, 82.9° (Epoch: 15 August)

Event Time Altitude Azimuth Distance (km) Brightness Sun altitude
Exits shadow 22:50:54 27° 213° (SSW) 1,814 4.9 -19.3°
Maximum altitude 22:54:23 59° 283° (WNW) 1,140 4.4 -19.2°
Drops below altitude 10° 23:00:38 10° 3° (N) 2,754 7.6 -19.2°
Sets 23:03:12 0° 7° (N) 3,699 8.7 -19.1°
